This demonstration page uses our WeatherBlox Daily Observations layout. Learn more.

Left ArrowRight Arrow

39.92423, -83.80882

Hourly Observations for April 22, 2021

Temp ( °F °C ) Dew Point ( °F °C ) Humidity (%) Winds ( mph kmh ) Pressure ( in mb ) Visibility ( mi km ) Precip ( " mm )
12:56 am 00:56 Clear 31 -0.6 31 -0.6 100 100 SW 8 13 30.13 1020 9 14.48406 0 0
1:56 am 01:56 Clear with Mist and Fog 30 -1.1 30 -1.1 100 100 W 7 11 30.13 1020 6 9.65604 0 0
2:56 am 02:56 Clear with Mist and Fog 29 -1.7 29 -1.7 100 100 WSW 6 9 30.11 1020 5 8.0467 0 0
3:56 am 03:56 Clear with Mist and Fog 29 -1.7 29 -1.7 100 100 SW 5 7 30.1 1019 4 6.43736 0 0
4:37 am 04:37 Cloudy with Mist and Fog 30 -1 30 -1 100 100 SW 6 9 30.14 1021 2.5 4.02335 0 0
4:52 am 04:52 Cloudy with Mist and Fog 30 -1 30 -1 100 100 SW 7 11 30.14 1021 3 4.82802 0 0
4:56 am 04:56 Cloudy with Mist and Fog 30 -1.1 30 -1.1 100 100 SW 8 13 30.11 1020 3 4.82802 0 0
5:06 am 05:06 Cloudy with Mist and Fog 30 -1 30 -1 100 100 WSW 5 7 30.14 1021 2.5 4.02335 0 0
5:13 am 05:13 Cloudy with Mist and Fog 30 -1 30 -1 100 100 WSW 7 11 30.14 1021 3 4.82802 0 0
5:56 am 05:56 Cloudy with Mist and Fog 31 -0.6 31 -0.6 100 100 WSW 7 11 30.12 1020 4 6.43736 0 0
6:56 am 06:56 Cloudy with Mist and Fog 32 0 32 0 100 100 WSW 5 7 30.13 1020 3 4.82802 0 0
7:56 am 07:56 Mostly Cloudy with Mist and Fog 33 0.6 33 0.6 100 100 WSW 6 9 30.15 1021 4 6.43736 0 0
8:56 am 08:56 Mostly Sunny 37 2.8 37 2.8 100 100 W 8 13 30.16 1021 8 12.87472 0 0
9:39 am 09:39 Cloudy 37 3 36 2 93 93 W 9 15 30.17 1022 10 16.0934 0 0
9:56 am 09:56 Cloudy 39 3.9 35 1.7 86 86 W 9 15 30.16 1021 10 16.0934 0 0
10:56 am 10:56 Mostly Cloudy 41 5 35 1.7 79 79 W 8 13 30.16 1022 10 16.0934 0 0
11:26 am 11:26 Cloudy with Light Rain 41 5 32 0 70 70 W 12 19 30.17 1022 10 16.0934 0 0
11:41 am 11:41 Cloudy with Light Rain 37 3 30 -1 75 75 WNW 10 17 30.19 1022 4 6.43736 0 0
11:50 am 11:50 Cloudy with Light Snow 36 2 32 0 87 87 NW 14 22 30.21 1023 1.75 2.816345 0 0
11:52 am 11:52 Cloudy with Light Snow 34 1 32 0 93 93 NW 17 28 30.21 1023 1 1.60934 0 0
11:56 am 11:56 Cloudy with Light Snow 34 1.1 32 0 92 92 NNW 14 22 30.2 1023 0.5 0.80467 0 0
12:03 pm 12:03 Cloudy with Snow 34 1 34 1 100 100 NNE 7 11 30.2 1023 0.5 0.80467 0 0
12:07 pm 12:07 Cloudy with Light Snow 34 1 34 1 100 100 N 9 15 30.2 1023 1 1.60934 0 0
12:10 pm 12:10 Cloudy with Light Snow 34 1 34 1 100 100 N 8 13 30.2 1023 2.5 4.02335 0 0
12:12 pm 12:12 Cloudy with Light Snow 34 1 34 1 100 100 N 8 13 30.2 1023 4 6.43736 0 0
12:20 pm 12:20 Cloudy 37 3 37 3 100 100 N 7 11 30.19 1022 9 14.48406 0 0
12:56 pm 12:56 Mostly Cloudy 41 5 34 1.1 76 76 N 3 6 30.16 1021 10 16.0934 0 0
1:56 pm 13:56 Cloudy 46 7.8 33 0.6 61 61 W 16 26 30.15 1021 10 16.0934 0 0
2:56 pm 14:56 Mostly Cloudy 48 8.9 29 -1.7 48 48 W 15 24 30.14 1021 10 16.0934 0 0
3:56 pm 15:56 Mostly Cloudy 47 8.3 24 -4.4 41 41 W 16 26 30.13 1020 10 16.0934 0 0
4:56 pm 16:56 Mostly Cloudy 47 8.3 26 -3.3 44 44 WNW 16 26 30.12 1020 10 16.0934 0 0
5:56 pm 17:56 Cloudy 48 8.9 26 -3.3 42 42 W 20 31 30.12 1020 10 16.0934 0 0
6:56 pm 18:56 Cloudy 47 8.3 26 -3.3 44 44 W 17 28 30.13 1020 10 16.0934 0 0
7:56 pm 19:56 Sunny 45 7.2 27 -2.8 49 49 W 15 24 30.13 1020 10 16.0934 0 0
8:56 pm 20:56 Clear 41 5 27 -2.8 57 57 W 7 11 30.14 1021 10 16.0934 0 0
9:56 pm 21:56 Clear 39 3.9 27 -2.8 62 62 SW 7 11 30.15 1021 10 16.0934 0 0
10:56 pm 22:56 Clear 37 2.8 27 -2.8 67 67 SW 7 11 30.16 1021 10 16.0934 0 0
11:56 pm 23:56 Clear 38 3.3 27 -2.8 65 65 SW 8 13 30.16 1021 10 16.0934 0 0

Powered by AerisWeather